weather.gov     
National Weather Service

Terminal Aerodrome Forecast
NWS Homepage
This page is being discontinued on March 12, 2014.
The same data is available at this site. Please update your bookmarks.
Thank you, and we apologize for the inconvenience.
Please send an email to SR-SRH.Webmaster@noaa.gov with any concerns.


Current Version
Previous Version:    01  02  03  04  05  06  07  08  09  10  11  12  13  14  
[Printable]
188
FTUS41 KBTV 251736
TAFMPV
TAF
KMPV 251736Z 2518/2618 24010KT P6SM BKN050
     FM252100 25010KT P6SM SCT050
     FM260800 30004KT P6SM SCT050 OVC150
     FM261400 35006KT 3SM -SN BR OVC030=


188
FTUS41 KBTV 251736
TAFMPV
TAF
KMPV 251736Z 2518/2618 24010KT P6SM BKN050
     FM252100 25010KT P6SM SCT050
     FM260800 30004KT P6SM SCT050 OVC150
     FM261400 35006KT 3SM -SN BR OVC030=




U.S. Dept. of Commerce
NOAA National Weather Service
1325 East West Highway
Silver Spring, MD 20910
E-mail: w-nws.webmaster@noaa.gov
Page last modified: May 16, 2007
NATIONAL WEATHER SERVICE: for Safety, for Work, for Fun - FOR LIFE